TimeCST,TemperatureF,Dew PointF,Humidity,Sea Level PressureIn,VisibilityMPH,Wind Direction,Wind SpeedMPH,Gust SpeedMPH,PrecipitationIn,Events,Conditions,WindDirDegrees,DateUTC
12:15 AM,37.4,35.6,93,29.73,3.0,NNW,15.0,-,N/A,,Overcast,330,2013-01-29 06:15:00
12:35 AM,39.2,37.4,93,29.72,5.0,North,5.8,-,N/A,,Overcast,350,2013-01-29 06:35:00
12:55 AM,42.8,41.0,93,29.70,4.0,ENE,4.6,-,0.01,,Overcast,70,2013-01-29 06:55:00
1:15 AM,41.0,39.2,93,29.68,5.0,ENE,9.2,-,N/A,,Overcast,70,2013-01-29 07:15:00
1:35 AM,41.0,39.2,93,29.68,4.0,ENE,8.1,-,0.01,,Overcast,60,2013-01-29 07:35:00
1:55 AM,41.0,39.2,93,29.67,4.0,East,10.4,-,0.05,,Overcast,80,2013-01-29 07:55:00
2:15 AM,41.0,39.2,93,29.66,5.0,ENE,9.2,-,N/A,,Overcast,70,2013-01-29 08:15:00
2:35 AM,41.0,39.2,93,29.64,7.0,East,15.0,-,N/A,,Overcast,90,2013-01-29 08:35:00
2:55 AM,41.0,39.2,93,29.64,7.0,ENE,9.2,-,N/A,,Overcast,60,2013-01-29 08:55:00
3:15 AM,41.0,37.4,87,29.62,4.0,East,10.4,-,N/A,,Overcast,80,2013-01-29 09:15:00
3:35 AM,39.2,37.4,93,29.61,3.0,ESE,11.5,-,N/A,,Overcast,110,2013-01-29 09:35:00
3:55 AM,39.2,37.4,93,29.59,1.5,East,11.5,-,N/A,,Overcast,100,2013-01-29 09:55:00
4:35 AM,41.0,37.4,87,29.57,0.2,ESE,11.5,-,N/A,,Overcast,110,2013-01-29 10:35:00
4:55 AM,41.0,39.2,93,29.57,0.2,SSE,16.1,24.2,0.03,,Overcast,150,2013-01-29 10:55:00
5:15 AM,44.6,42.8,93,29.58,0.5,SE,5.8,-,0.11,,Overcast,140,2013-01-29 11:15:00
5:35 AM,44.6,42.8,93,29.57,0.2,SE,10.4,-,0.16,,Overcast,140,2013-01-29 11:35:00
5:55 AM,46.4,44.6,93,29.56,0.2,SSE,9.2,-,0.16,,Overcast,160,2013-01-29 11:55:00
6:15 AM,48.2,46.4,93,29.56,1.5,South,11.5,-,0.01,,Overcast,170,2013-01-29 12:15:00
6:35 AM,48.2,46.4,93,29.56,0.8,South,8.1,-,0.01,,Overcast,190,2013-01-29 12:35:00
6:55 AM,46.4,46.4,100,29.56,0.2,South,9.2,-,0.01,,Overcast,170,2013-01-29 12:55:00
7:15 AM,48.2,46.4,93,29.56,0.8,South,11.5,-,N/A,,Mostly Cloudy,170,2013-01-29 13:15:00
7:35 AM,48.2,46.4,93,29.56,1.0,South,10.4,-,N/A,,Overcast,180,2013-01-29 13:35:00
7:55 AM,48.2,46.4,93,29.56,1.2,South,10.4,-,N/A,,Mostly Cloudy,180,2013-01-29 13:55:00
8:15 AM,50.0,48.2,94,29.55,2.5,South,11.5,-,N/A,,Mostly Cloudy,180,2013-01-29 14:15:00
8:35 AM,50.0,46.4,87,29.54,3.0,South,9.2,-,N/A,,Scattered Clouds,190,2013-01-29 14:35:00
8:55 AM,50.0,48.2,94,29.54,1.0,South,11.5,-,N/A,,Mostly Cloudy,190,2013-01-29 14:55:00
9:15 AM,51.8,50.0,94,29.54,5.0,South,11.5,-,N/A,,Scattered Clouds,190,2013-01-29 15:15:00
9:35 AM,51.8,50.0,94,29.54,10.0,South,13.8,-,N/A,,Scattered Clouds,190,2013-01-29 15:35:00
9:55 AM,51.8,50.0,94,29.56,10.0,SSW,16.1,-,N/A,,Mostly Cloudy,200,2013-01-29 15:55:00
10:15 AM,53.6,50.0,88,29.56,10.0,SSW,15.0,-,N/A,,Overcast,210,2013-01-29 16:15:00
10:35 AM,53.6,50.0,88,29.57,10.0,SSW,12.7,-,N/A,,Overcast,210,2013-01-29 16:35:00
10:55 AM,53.6,50.0,88,29.57,10.0,SSW,13.8,-,N/A,,Overcast,210,2013-01-29 16:55:00
11:15 AM,53.6,50.0,88,29.56,10.0,SSW,9.2,-,N/A,,Overcast,210,2013-01-29 17:15:00
11:35 AM,51.8,48.2,88,29.56,2.5,West,10.4,-,N/A,,Overcast,260,2013-01-29 17:35:00
11:55 AM,50.0,46.4,87,29.56,0.2,WNW,9.2,-,N/A,,Overcast,290,2013-01-29 17:55:00
12:15 PM,46.4,44.6,93,29.57,0.2,WNW,10.4,-,0.03,,Overcast,290,2013-01-29 18:15:00
12:35 PM,44.6,42.8,93,29.55,1.0,Calm,Calm,-,0.16,,Overcast,0,2013-01-29 18:35:00
12:55 PM,44.6,42.8,93,29.54,1.5,NW,10.4,-,0.16,,Overcast,310,2013-01-29 18:55:00
1:15 PM,42.8,41.0,93,29.56,2.5,WSW,6.9,-,0.02,,Overcast,250,2013-01-29 19:15:00
1:35 PM,42.8,41.0,93,29.56,3.0,West,8.1,-,0.03,,Overcast,280,2013-01-29 19:35:00
1:55 PM,42.8,41.0,93,29.55,3.0,WNW,6.9,-,0.05,,Overcast,290,2013-01-29 19:55:00
2:15 PM,42.8,41.0,93,29.54,4.0,WNW,8.1,-,N/A,,Overcast,300,2013-01-29 20:15:00
2:35 PM,41.0,37.4,87,29.53,4.0,West,8.1,-,N/A,,Overcast,280,2013-01-29 20:35:00
2:55 PM,41.0,37.4,87,29.53,2.5,NW,8.1,-,N/A,,Overcast,310,2013-01-29 20:55:00
3:15 PM,41.0,37.4,87,29.53,2.5,WNW,9.2,-,N/A,,Overcast,300,2013-01-29 21:15:00
3:35 PM,39.2,37.4,93,29.52,1.8,NW,9.2,-,N/A,,Overcast,320,2013-01-29 21:35:00
3:55 PM,39.2,37.4,93,29.52,4.0,NNW,11.5,-,N/A,,Overcast,340,2013-01-29 21:55:00
4:15 PM,39.2,37.4,93,29.52,4.0,NNW,6.9,-,N/A,,Overcast,340,2013-01-29 22:15:00
4:35 PM,37.4,35.6,93,29.51,3.0,North,6.9,-,N/A,,Overcast,10,2013-01-29 22:35:00
4:55 PM,37.4,35.6,93,29.51,2.5,NNW,8.1,-,N/A,,Overcast,330,2013-01-29 22:55:00
5:15 PM,37.4,35.6,93,29.52,5.0,NW,9.2,-,N/A,,Overcast,320,2013-01-29 23:15:00
5:35 PM,37.4,35.6,93,29.51,7.0,North,9.2,-,N/A,,Overcast,350,2013-01-29 23:35:00
5:55 PM,37.4,35.6,93,29.53,7.0,North,6.9,-,0.01,,Overcast,350,2013-01-29 23:55:00
6:15 PM,35.6,33.8,93,29.52,7.0,NNW,8.1,-,N/A,,Overcast,340,2013-01-30 00:15:00
6:35 PM,35.6,33.8,93,29.53,5.0,NNW,9.2,-,N/A,,Overcast,330,2013-01-30 00:35:00
6:55 PM,35.6,33.8,93,29.53,5.0,NNW,10.4,-,N/A,,Overcast,340,2013-01-30 00:55:00
7:15 PM,35.6,33.8,93,29.52,5.0,North,10.4,-,N/A,,Overcast,350,2013-01-30 01:15:00
7:35 PM,35.6,33.8,93,29.52,5.0,North,9.2,-,N/A,,Overcast,350,2013-01-30 01:35:00
7:55 PM,35.6,33.8,93,29.52,4.0,North,9.2,-,N/A,,Overcast,350,2013-01-30 01:55:00
8:15 PM,33.8,32.0,93,29.51,3.0,North,11.5,-,N/A,,Overcast,350,2013-01-30 02:15:00
8:35 PM,33.8,32.0,93,29.52,3.0,North,9.2,-,0.01,,Overcast,350,2013-01-30 02:35:00
8:55 PM,33.8,32.0,93,29.51,3.0,North,11.5,-,0.02,,Overcast,360,2013-01-30 02:55:00
9:15 PM,33.8,32.0,93,29.53,3.0,North,11.5,-,0.01,,Overcast,350,2013-01-30 03:15:00
9:35 PM,33.8,32.0,93,29.51,5.0,North,11.5,-,0.02,,Overcast,360,2013-01-30 03:35:00
9:55 PM,33.8,32.0,93,29.51,4.0,North,10.4,-,0.03,,Overcast,350,2013-01-30 03:55:00
10:15 PM,33.8,32.0,93,29.50,5.0,North,9.2,-,0.01,,Overcast,350,2013-01-30 04:15:00
10:35 PM,33.8,32.0,93,29.52,7.0,NNW,10.4,-,0.01,,Overcast,340,2013-01-30 04:35:00
10:55 PM,33.8,32.0,93,29.54,7.0,NNW,9.2,-,0.01,,Overcast,330,2013-01-30 04:55:00
11:15 PM,33.8,32.0,93,29.52,5.0,NNW,12.7,-,0.01,,Overcast,340,2013-01-30 05:15:00
11:35 PM,33.8,32.0,93,29.52,5.0,NNW,10.4,-,0.02,,Overcast,340,2013-01-30 05:35:00
11:55 PM,33.8,32.0,93,29.48,10.0,North,15.0,20.7,0.02,,Overcast,350,2013-01-30 05:55:00